Карточка аэропорта UMKK

Внимание!
Информация на этой странице в стадии наполнения.
Если вы не увидели какой-то информации, или заметили неточность - пожалуйста сообщите нам!
Спасибо!
Команда RU-STAFF
Название аэропортаХраброво
Название аэропорта (англ.)Khrabrovo
Превышение43 ft. (13.1 m.)
Координаты54°53.4', 20°35.55'
Высота перехода4000ft
Эшелон переходаFL50 (QNH>=1013hPa); FL60 (QNH<1013hPa); FL50 (QNH<977hPa);
Коды ответчика6620-6637
Зона ОрВДКалининград РПИ (UMKK)
Данные METARUMKK 220230Z 32006G11MPS 9999 BKN019 04/01 Q1018 R06/CLRD95 NOSIG RMK QFE762/1016
Проноз погоды (TAF)UMKK 220157Z 2203/2303 34007G12MPS 6000 BKN016 TEMPO 2203/2209 -SHRASN BKN010CB TEMPO 2209/2216 32010G16MPS 3000 -SHRASN BKN004 BKN010CB BECMG 2216/2218 30007G12MPS BKN010 BECMG 2221/2224 27005MPS TEMPO 2300/2303 BKN005
NOTAMshow/hide NOTAM
AWOS   TABLE

Информация о ВПП

ВПП Длина ВПП (м.) Покрытие Курс ВПП Частота ILS
243350Асфальтобетон240109.5
063350Асфальтобетон60110.3

Диспетчерские позиции

Позывной Наименование органа УВД Частота
UMKK_APPКалининград-Подход126.0
UMKK_TWRКалининград-Вышка127.2



Спутниковое изображение